Saint Athan, United Kingdom

9:33 AM BST on October 01, 2016 (GMT +0100)
Saint Athan Air Base

Weather History for EGDX - December, 2013

Change the Weather History Date:

Sunday, December 15, 2013

  Actual Average (EGFF) Record (EGFF)
Temperature  
Mean Temperature 51 °F -  
Max Temperature 56 °F 44 °F 55 °F (2013)
Min Temperature 46 °F 36 °F 30 °F (2001)
Degree Days  
Heating Degree Days 14    
Growing Degree Days 1 (Base 50)    
Moisture  
Dew Point 51 °F    
Average Humidity 93    
Maximum Humidity 100    
Minimum Humidity 87    
Precipitation  
Precipitation 0.08 in - - ()
Sea Level Pressure  
Sea Level Pressure 29.98 in    
Wind  
Wind Speed 11 mph ()    
Max Wind Speed 16 mph    
Max Gust Speed -    
Visibility 7.0 miles    
Events Rain    
Averages and records for this station are not official NWS values.
T = Trace of Precipitation, MM = Missing Value Source: Averaged Metar Reports

Daily Weather History Graph

Daily Weather History Graph

Search for Another Location

Airport or City:

Trip Planner

Search our weather history database for the weather conditions in past years. The results will help you decide how hot, cold, wet, or windy it might be!

Date:

Astronomy

Dec. 15, 2013 Rise Set
Actual Time 8:12 AM GMT 4:05 PM GMT
Civil Twilight 7:32 AM GMT 4:45 PM GMT
Nautical Twilight 6:49 AM GMT 5:28 PM GMT
Astronomical Twilight 6:08 AM GMT 6:09 PM GMT
Moon 3:07 PM GMT (12/15) 6:05 AM GMT (12/15)
Length of Visible Light 9h 12m
Length of Day
7h 52m
Waxing Gibbous, 97% of the Moon is Illuminated
Dec 15
Waxing Gibbous
Dec 17
Full
Dec 25
Last Quarter
Jan 1
New
Jan 8
First Quarter

Hourly Weather History & Observations

Time (GMT) Temp. Windchill Dew Point Humidity Pressure Visibility Wind Dir Wind Speed Gust Speed Precip Events Conditions
12:00 AM 51 °F - 50 °F 96% 30.04 in 9 mi West 13.8 mph - -   Mostly Cloudy
12:50 AM 50.0 °F - 50.0 °F 100% 30.04 in 6.2 mi WSW 16.1 mph - N/A   Partly Cloudy
1:50 AM 50.0 °F - 48.2 °F 94% 30.09 in 6.2 mi WSW 16.1 mph - N/A   Mostly Cloudy
2:50 AM 50.0 °F - 48.2 °F 94% 30.12 in 6.2 mi WSW 13.8 mph - N/A   Mostly Cloudy
3:00 AM 50 °F - 49 °F 95% 30.13 in 9 mi WSW 13.8 mph - -   Mostly Cloudy
3:50 AM 50.0 °F - 48.2 °F 94% 30.06 in 6.2 mi WSW 15.0 mph - N/A   Partly Cloudy
4:50 AM 50.0 °F - 46.4 °F 87% 30.09 in 6.2 mi SW 12.7 mph - N/A   Unknown
5:50 AM 48.2 °F - 46.4 °F 93% 30.06 in 6.2 mi SSW 9.2 mph - N/A   Unknown
6:00 AM 48 °F - 46 °F 88% 30.09 in 12 mi SSW 9.2 mph - -  
6:50 AM 46.4 °F 42.4 °F 46.4 °F 100% 30.06 in 6.2 mi SSE 8.1 mph - N/A   Unknown
7:50 AM 46.4 °F 41.9 °F 44.6 °F 93% 30.06 in 6.2 mi SSE 9.2 mph - N/A   Unknown
8:50 AM 48.2 °F - 46.4 °F 93% 30.04 in 6.2 mi SE 9.2 mph - N/A   Scattered Clouds
9:00 AM 48 °F - 46 °F 88% 30.06 in 14 mi SE 9.2 mph - -   Partly Cloudy
9:50 AM 48.2 °F - 46.4 °F 93% 30.01 in 6.2 mi ESE 12.7 mph - N/A   Scattered Clouds
10:50 AM 50.0 °F - 50.0 °F 100% 29.98 in 6.2 mi SSE 12.7 mph - N/A Rain Light Rain Showers
11:50 AM 55.4 °F - 53.6 °F 94% 29.98 in 6.2 mi SSW 13.8 mph - N/A   Scattered Clouds
12:00 PM 55 °F - 54 °F 93% 29.99 in 31 mi SSW 13.8 mph - - Rain Rain
12:50 PM 57.2 °F - 53.6 °F 88% 29.95 in 6.2 mi SW 15.0 mph - N/A   Overcast
1:50 PM 57.2 °F - 53.6 °F 88% 29.92 in 6.2 mi SSW 13.8 mph - N/A   Mostly Cloudy
2:50 PM 55.4 °F - 53.6 °F 94% 29.92 in 6.2 mi South 11.5 mph - N/A Rain Rain Showers
3:00 PM 55 °F - 54 °F 94% 29.93 in 9 mi South 11.5 mph - - Rain Rain Showers
3:50 PM 55.4 °F - 53.6 °F 94% 29.92 in 6.2 mi SW 13.8 mph - N/A   Mostly Cloudy
4:50 PM 55.4 °F - 53.6 °F 94% 29.92 in 6.2 mi South 10.4 mph - N/A   Overcast
5:50 PM 55.4 °F - 53.6 °F 94% 29.89 in 6.2 mi SSW 12.7 mph - N/A   Mostly Cloudy
6:00 PM 56 °F - 54 °F 90% 29.91 in 22 mi SSW 12.7 mph - - Rain Rain
6:50 PM 55.4 °F - 53.6 °F 94% 29.89 in 6.2 mi SSW 13.8 mph - N/A Rain Rain Showers
7:50 PM 55.4 °F - 53.6 °F 94% 29.89 in 6.2 mi SSW 13.8 mph - N/A   Mostly Cloudy
8:50 PM 55.4 °F - 53.6 °F 94% 29.89 in 6.2 mi SSW 9.2 mph - N/A   Mostly Cloudy
9:00 PM 55 °F - 53 °F 92% 29.91 in 28 mi SSW 9.2 mph - -   Mostly Cloudy
9:50 PM 55.4 °F - 53.6 °F 94% 29.89 in 6.2 mi SSW 12.7 mph - N/A   Mostly Cloudy
10:50 PM 55.4 °F - 51.8 °F 88% 29.89 in 6.2 mi SW 12.7 mph - N/A   Mostly Cloudy
11:50 PM 55.4 °F - 51.8 °F 88% 29.89 in 6.2 mi SSW 10.4 mph - N/A   Mostly Cloudy